Tracking 22438 objects as of 25-Feb-2021
HD Live streaming from Space Station
objects crossing your sky now

OF-2

Track OF-2 now!
10-day predictions
OF-2 is classified as:


NORAD ID: 45113
Int'l Code: 2019-071C
Perigee: 460.4 km
Apogee: 476.6 km
Inclination: 51.6 °
Period: 93.8 minutes
Semi major axis: 6839 km
RCS: Unknown
Launch date: November 2, 2019
Source: United States (US)
Launch site: WALLOPS ISLAND (WLPIS)

Uplink (MHz):
Downlink (MHz): 435.040/2426.000
Beacon (MHz):
Mode: 9k6 GMSK/3-5Mbps QPSK
Call sign: KG5UAK
Status: Inactive

aabbcc
Your satellite tracking list
Your tracking list is empty




NASA's NSSDC Master Catalog

Two Line Element Set (TLE):
1 45113U 19071C   21055.47543330  .00005468  00000-0  17011-3 0  9990
2 45113  51.6403 224.9443 0011897 243.3826 116.5938 15.34850576 59817
Source of the keplerian elements: Caltech